Tracking 20942 objects as of 15-Jul-2020
HD Live streaming from Space Station
objects crossing your sky now

CHUANG XIN 1 (CZ-1)

Track CHUANG XIN 1 (CZ-1) now!
10-day predictions
CHUANG XIN 1 (CZ-1) is classified as:


NORAD ID: 28058
Int'l Code: 2003-049B
Perigee: 734.1 km
Apogee: 751.1 km
Inclination: 98.7 °
Period: 99.5 minutes
Semi major axis: 7113 km
RCS: 0.5789 m2 (medium)
Launch date: October 21, 2003
Source: People's Republic of China (PRC)
Launch site: Taiyaun Space Center, China (TSC)

Prototype of advanced telecommunications satellite for LEO.
aabbcc
Your satellite tracking list
Your tracking list is empty




NASA's NSSDC Master Catalog

Two Line Element Set (TLE):
1 28058U 03049B   20196.74851417 +.00000006 +00000-0 +14555-4 0  9994
2 28058 098.7329 018.9429 0011934 232.4508 127.5600 14.47004937883300
Source of the keplerian elements: AFSPC